This is the latest recevied weather packets stored in our database for station/object WB4ROX. If no packets are shown the sender has not sent any weather packets the latest 10 day(s).
| Time | Temp. | Humidity | Pressure | Rain* | Wind** | Luminosity | Snow |
|---|---|---|---|---|---|---|---|
| 1777921087 | 16.11° C | 50% | 1018.9 hPa | 0 mm | - | 201 W/m² | - |
| 1777920784 | 15.56° C | 50% | 1019.1 hPa | 0 mm | - | 870 W/m² | - |
| 1777920480 | 16.11° C | 48% | 1019 hPa | 0 mm | - | 836 W/m² | - |
| 1777920176 | 16.11° C | 47% | 1019.1 hPa | 0 mm | - | 589 W/m² | - |
| 1777919872 | 15.56° C | 49% | 1019 hPa | 0 mm | - | 825 W/m² | - |
| 1777919569 | 15° C | 50% | 1018.8 hPa | 0 mm | - | 825 W/m² | - |
| 1777919267 | 15.56° C | 50% | 1019.3 hPa | 0 mm | - | 177 W/m² | - |
| 1777918964 | 15° C | 50% | 1018.9 hPa | 0 mm | - | 867 W/m² | - |
| 1777918662 | 15° C | 51% | 1019 hPa | 0 mm | - | 830 W/m² | - |
| 1777918359 | 15.56° C | 49% | 1019.1 hPa | 0 mm | - | 417 W/m² | - |
| 1777918058 | 15.56° C | 49% | 1019 hPa | 0 mm | - | 806 W/m² | - |
| 1777917756 | 15.56° C | 49% | 1019 hPa | 0 mm | - | 828 W/m² | - |
| 1777917453 | 15° C | 51% | 1019.3 hPa | 0 mm | - | 842 W/m² | - |
| 1777917150 | 14.44° C | 50% | 1019.2 hPa | 0 mm | - | 866 W/m² | - |
| 1777916848 | 14.44° C | 52% | 1019.2 hPa | 0 mm | - | 272 W/m² | - |
| 1777916546 | 14.44° C | 50% | 1019.4 hPa | 0 mm | - | 1008 W/m² | - |
| 1777916241 | 14.44° C | 48% | 1019.2 hPa | 0 mm | - | 934 W/m² | - |
| 1777915939 | 14.44° C | 48% | 1019.4 hPa | 0 mm | - | 326 W/m² | - |
| 1777915635 | 13.89° C | 51% | 1019.3 hPa | 0 mm | - | 890 W/m² | - |
| 1777915332 | 14.44° C | 49% | 1019.3 hPa | 0 mm | - | 755 W/m² | - |
| 1777915028 | 13.89° C | 49% | 1019.3 hPa | 0 mm | - | 662 W/m² | - |
| 1777914726 | 13.89° C | 48% | 1019.4 hPa | 0 mm | - | 696 W/m² | - |
| 1777914422 | 13.89° C | 46% | 1019.2 hPa | 0 mm | - | 806 W/m² | - |
| 1777914120 | 13.33° C | 47% | 1019.4 hPa | 0 mm | - | 742 W/m² | - |
| 1777913815 | 13.33° C | 46% | 1019.4 hPa | 0 mm | - | 643 W/m² | - |
* Rain latest hour (hover to see other rain measurements)
** Current wind speed in m/s (hover to see current wind gust speed)